www.pogodaiklimat.ru
ПОГОДА в Пожега Ужичка

Архив погоды в Пожега Ужичка (Сербия)

Время
(UTC), дата
16 17.05
17 17.05
18 17.05
19 17.05
20 17.05
21 17.05
22 17.05
23 17.05
00 18.05
01 18.05
02 18.05
03 18.05
04 18.05
05 18.05
06 18.05
07 18.05
08 18.05
09 18.05
10 18.05
11 18.05
12 18.05
13 18.05
14 18.05
15 18.05
16 18.05
17 18.05
18 18.05
19 18.05
20 18.05
21 18.05
22 18.05
23 18.05
00 19.05
01 19.05
02 19.05
03 19.05
04 19.05
05 19.05
06 19.05
07 19.05
08 19.05
09 19.05
10 19.05
11 19.05
12 19.05
13 19.05
14 19.05
15 19.05
16 19.05
17 19.05
18 19.05
19 19.05
20 19.05
21 19.05
22 19.05
23 19.05
00 20.05
01 20.05
02 20.05
03 20.05
04 20.05
05 20.05
06 20.05
07 20.05
08 20.05
09 20.05
10 20.05
11 20.05
12 20.05
13 20.05
14 20.05
15 20.05
16 20.05
17 20.05
18 20.05
19 20.05
20 20.05
21 20.05
22 20.05
23 20.05
00 21.05
01 21.05
02 21.05
03 21.05
04 21.05
05 21.05
06 21.05
07 21.05
08 21.05
09 21.05
10 21.05
11 21.05
12 21.05
13 21.05
14 21.05
15 21.05
16 21.05
17 21.05
18 21.05
19 21.05
20 21.05
21 21.05
22 21.05
23 21.05
00 22.05
01 22.05
02 22.05
03 22.05
04 22.05
05 22.05
06 22.05
07 22.05
08 22.05
09 22.05
10 22.05
11 22.05
12 22.05
13 22.05
14 22.05
15 22.05
16 22.05
17 22.05
18 22.05
19 22.05
20 22.05
21 22.05
22 22.05
23 22.05
00 23.05
01 23.05
02 23.05
03 23.05
04 23.05
05 23.05
06 23.05
07 23.05
08 23.05
09 23.05
10 23.05
11 23.05
12 23.05
13 23.05
14 23.05
15 23.05
16 23.05
17 23.05
18 23.05
19 23.05
20 23.05
21 23.05
22 23.05
23 23.05
00 24.05
01 24.05
02 24.05
03 24.05
04 24.05
05 24.05
06 24.05
07 24.05
08 24.05
09 24.05
10 24.05
11 24.05
12 24.05
13 24.05
14 24.05
15 24.05
Ветер
(напр.,м/с)
Видим. Явления Облачность Т
(С)
Тd
(С)
f
(%)
Тe
(С)
Тes
(С)
Комфортность P
(гПа)
Po
(гПа)
Тmin
(С)
Tmax
(С)
R
(мм)
R24
(мм)
S
(см)
В 2 20 км 4/4 1000 м
[Cu med, cong]
+22.7 +17.1 71 +28 +29 душно 1009.5 974.1
В 1 20 км 1/1 1000 м
[Cu med, cong]
+21.8 +17.1 75 +26 +27 душно 1009.7 974.2
штиль 0 20 км ясно +18.5 +15.5 83 +19 +19 1010.8 974.9 +22.7
Ю 1 20 км ясно +17.0 +14.7 86 +18 +18 1011.9 975.7
штиль 0 20 км ясно +15.3 +13.5 89 +15 +15 1013.2 976.8
штиль 0 20 км ясно +13.8 +12.1 89 +13 +13 1014.0 977.3
штиль 0 20 км ясно +12.5 +11.0 91 +12 +12 1014.7 977.8
штиль 0 20 км ясно +11.6 +10.1 91 +11 +11 1015.1 978.1
штиль 0 10 км 4/4
[Sc]
+10.4 +9.3 93 +10 +10 1015.5 978.3
штиль 0 600 м туман, небо не видно ?/? +10.6 +10.2 97 +10 +10 1015.8 978.6
СЗ 1 600 м туман, небо не видно ?/? +10.7 +10.4 98 +10 +10 1016.5 979.3
СЗ 1 600 м туман, небо не видно ?/? +11.0 +10.6 97 +11 +11 1016.6 979.5
штиль 0 600 м туман, небо не видно ?/? +11.5 +11.2 98 +11 +11 1017.0 979.9
ЮЗ 1 600 м туман, небо не видно ?/? +11.6 +11.2 97 +11 +11 1017.5 980.4
Ю 1 2000 м в посл. час туман 10/10 1000 м
[St]
+12.0 +11.4 96 +12 +12 1018.3 981.2 +10.3
Ю 1 4000 м дымка {туман} 8/8 600 м
[St]
+13.4 +12.9 97 +13 +16 1017.8 981.0
Ю 1 20 км ясно +16.5 +12.5 77 +17 +32 опасность простуды 1016.9 980.5
ЮЗ 1 20 км 1/1 1000 м
[Cu hum]
+20.3 +12.6 61 +23 +41 комфорт 1016.0 980.1
ЮВ 2 20 км 1/1 1000 м
[Cu hum]
+23.1 +9.0 41 +25 +41 комфорт 1015.1 979.5
ЮВ 2 20 км 4/1 1000 м
[Cu hum Ci fib]
+24.7 +10.6 41 +26 +42 жарко 1014.2 978.8
В 2 20 км 6/0 1000 м
[Ci sp]
+15.2 +10.7 74 +15 +30 опасность простуды 1013.5 978.2
В 3 20 км 5/1 1000 м
[Cu hum Ci sp]
+26.0 +11.3 40 +27 +37 жарко 1013.0 977.8
В 3 20 км 8/1 1000 м
[Cu hum Ci sp]
+26.0 +11.2 40 +27 +34 жарко 1012.1 977.0
В 2 20 км 9/0 1000 м
[Ci sp]
+25.1 +12.2 45 +27 +32 жарко 1011.9 976.7
В 3 20 км 10/0
[Ac As]
+24.1 +13.6 52 +26 +27 жарко 1011.7 976.4
ЮВ 1 20 км 10/0
[Ac As]
+22.7 +15.0 62 +27 +27 душно 1011.9 976.4
штиль 0 20 км 10/1 1000 м
[Sc Ac As]
+20.3 +16.1 77 +23 +23 комфорт 1012.1 976.4 +26.0
С 1 20 км 10/0
[Ac As]
+19.2 +16.6 85 +22 +22 комфорт 1012.8 976.9
СЗ 1 20 км 10/0
[Ac As]
+18.1 +14.7 81 +19 +19 1013.3 977.2
СЗ 1 20 км 10/0
[Ac As]
+17.4 +14.8 85 +18 +18 1012.9 976.8
штиль 0 20 км 10/0
[Ac As]
+16.5 +14.6 89 +16 +16 1014.2 977.9
СВ 1 20 км 10/0
[Ac As]
+16.1 +14.6 91 +17 +17 1013.6 977.3
штиль 0 20 км в посл. час дождь 10/10 1000 м
[Sc]
+15.9 +14.5 91 +16 +16 1014.2 976.8 1
СЗ 1 20 км 10/10 1000 м
[Sc]
+15.7 +14.6 93 +16 +16 1013.1 976.7
штиль 0 20 км 10/10 1000 м
[Sc]
+15.3 +14.3 94 +15 +15 1012.7 976.3
штиль 0 10 км 10/10 1000 м
[Sc]
+15.1 +14.5 96 +15 +15 1013.0 976.6
штиль 0 4000 м дымка 10/10 1000 м
[Sc]
+15.4 +14.7 96 +15 +15 1013.1 976.7
штиль 0 4000 м дымка 9/9 1000 м
[Sc]
+15.8 +15.1 96 +16 +16 1013.1 976.6
З 1 4000 м дымка {дождь} 10/10 1000 м
[Sc]
+16.5 +15.8 96 +17 +17 1013.4 977.1 +15.1 1 1.1
ЮВ 1 8000 м дымка 10/10 1000 м
[Sc]
+17.9 +17.1 95 +19 +19 1013.2 977.1
ЮВ 2 10 км 8/8 1000 м
[Sc]
+18.5 +16.6 89 +20 +22 1013.7 977.7
ЮВ 2 15 км 8/8 1000 м
[Sc]
+20.0 +16.6 81 +23 +27 комфорт 1013.5 977.7
ЮВ 2 20 км 5/5 1000 м
[Cu Sc]
+22.1 +16.7 71 +26 +36 душно 1013.1 977.5
ЮВ 2 20 км 4/4 1000 м
[Cu med, cong]
+23.7 +16.2 63 +27 +38 жарко 1012.0 976.7
ЮВ 2 20 км 4/4 1000 м
[Cu med, cong]
+24.4 +15.8 59 +28 +38 душно 1011.6 976.4
В 3 20 км 5/4 1000 м
[Cu med, cong Ci fib]
+25.3 +15.5 55 +28 +35 жарко 1010.7 975.6
СВ 3 20 км 5/4 1000 м
[Cu med, cong Ci fib]
+25.3 +15.5 55 +28 +33 жарко 1010.6 975.5
В 3 20 км 5/4 1000 м
[Cu med, cong Ci fib]
+25.2 +15.2 54 +28 +31 жарко 1009.8 974.7
В 3 20 км 8/1 1000 м
[Cu med, cong Ci fib]
+24.5 +15.2 56 +27 +29 жарко 1009.6 974.4
В 2 20 км 10/1 1000 м
[Cu med, cong Ac As]
+22.6 +16.0 66 +27 +27 душно 1009.6 974.2
В 1 20 км 10/0
[Ac As]
+21.6 +16.1 71 +25 +25 комфорт 1009.7 974.2 +26.0
В 1 20 км 10/10
[Cu Sc Cs]
+20.8 +16.0 74 +25 +25 комфорт 1010.0 974.3
СЗ 2 н/о н/о +17.8 +17.8 100 +18 +18 1012.1 976.2
СЗ 2 15 км гроза, ливневой дождь 10/10 600 м
[Cb cap]
+16.9 +15.7 93 +17 +17 1012.7 976.5
З 1 10 км слаб. дождь {гроза} 10/10 600 м
[Sc]
+16.2 +15.6 96 +17 +17 1013.3 977.0
Ю 1 15 км в посл. час дождь {гроза} 10/10 1000 м
[Sc]
+16.0 +15.4 96 +17 +17 1013.6 977.3
штиль 0 10 км слаб. дождь {гроза} 10/10 600 м
[Sc]
+16.0 +15.5 97 +16 +16 1013.4 977.1 18
В 1 10 км слаб. дождь 10/10 600 м
[Sc]
+16.0 +15.5 97 +17 +17 1012.7 976.4
СЗ 1 10 км слаб. дождь 10/10 600 м
[Sc]
+15.9 +15.4 97 +17 +17 1012.2 975.9
СЗ 1 10 км в посл. час дождь 10/10 600 м
[Sc]
+15.8 +15.3 97 +16 +16 1012.3 976.0
штиль 0 6000 м дымка {дождь} 10/10 600 м
[Sc]
+15.9 +15.6 98 +16 +16 1012.2 975.9
штиль 0 6000 м дымка 10/10 600 м
[Sc]
+16.3 +15.8 97 +16 +16 1012.7 976.4
ЮВ 1 6000 м дымка {дождь} 10/10 600 м
[Sc]
+16.9 +16.4 97 +18 +18 1012.9 976.7 +15.8 21 21.4
Ю 1 8000 м дымка 9/9 600 м
[Cu Sc]
+17.8 +17.0 95 +19 +20 1013.1 977.0
Ю 1 15 км 8/8 600 м
[Cu Sc]
+18.9 +17.3 90 +21 +24 комфорт 1012.9 977.0
ЮВ 1 20 км 4/4 600 м
[Cu Sc]
+21.2 +18.5 85 +26 +37 душно 1012.4 976.8
В 1 20 км 3/3 1000 м
[Cu med, cong]
+22.6 +19.5 83 +29 +44 очень душно 1012.2 976.8
Ю 1 20 км 3/3 1000 м
[Cu med, cong]
+23.5 +20.5 83 +29 +45 душно 1012.1 976.8
В 1 20 км 3/3 1000 м
[Cu med, cong]
+24.5 +20.0 76 +30 +44 очень душно 1011.6 976.4
ЮВ 1 20 км 3/3 1000 м
[Cu med, cong]
+25.7 +19.4 68 +31 +43 очень душно 1010.8 975.8
В 2 20 км 3/3 1000 м
[Cu med, cong]
+25.7 +14.0 48 +28 +35 жарко 1010.3 975.3
В 3 20 км 3/1 1000 м
[Cu med, cong Ci fib]
+25.7 +19.1 100 +26 +30 жарко 1010.4 975.4
В 2 20 км 6/0
[Ci sp]
+25.5 +17.9 63 +30 +32 душно 1009.7 974.7
штиль 0 20 км 6/0
[Ci sp]
+24.4 +17.2 64 +28 +29 душно 1010.0 974.8
В 1 20 км 6/0
[Ci sp]
+22.4 +17.2 72 +27 +27 душно 1010.5 975.1 +25.7
штиль 0 20 км 6/0
[Ci sp]
+20.1 +15.9 77 +22 +22 комфорт 1010.8 975.1
СЗ 1 20 км 5/0
[Ci sp]
+18.4 +16.5 89 +20 +20 1011.5 975.6
СЗ 1 20 км 5/0
[Ci sp]
+17.4 +15.8 90 +18 +18 1012.0 975.9
штиль 0 20 км 4/0
[Ci sp]
+16.6 +15.1 91 +16 +16 1012.1 975.9
штиль 0 20 км ясно +15.7 +14.4 92 +15 +15 1011.8 975.5
штиль 0 20 км ясно +15.3 +14.0 92 +15 +15 1011.9 975.5
штиль 0 10 км ясно +14.4 +13.0 91 +14 +14 1012.0 975.5
штиль 0 8000 м дымка 10/10 600 м
[St]
+15.0 +13.7 92 +15 +15 1012.1 975.7
штиль 0 400 м туман, небо не видно ?/? +15.0 +13.7 92 +15 +15 1011.9 975.5
СЗ 1 300 м туман, небо не видно ?/? +15.0 +14.2 95 +15 +15 1012.0 975.6
З 1 300 м туман, небо не видно ?/? +15.2 +14.4 95 +16 +16 1011.7 975.3
штиль 0 2000 м в посл. час туман 10/10 600 м
[St]
+15.9 +14.9 94 +16 +16 1011.6 975.3 +14.4
Ю 1 6000 м дымка 9/9 600 м
[St]
+18.2 +16.7 91 +20 +21 1010.8 974.9
З 1 10 км 9/9 600 м
[Cu Sc]
+19.7 +17.7 88 +23 +25 комфорт 1010.3 974.6
ЮВ 1 15 км 6/6 600 м
[Cu Sc]
+21.2 +18.3 84 +25 +33 комфорт 1009.9 974.4
ЮВ 2 15 км 4/4 600 м
[Cu Sc]
+23.5 +19.4 78 +29 +40 душно 1009.0 973.8
В 3 15 км гроза без осадков 5/5 600 м
[Cb calv]
+25.9 +20.1 70 +32 +40 очень душно 1007.7 972.8
В 2 10 км гроза, ливневой дождь 9/9 600 м
[Cb calv]
+23.0 +20.7 87 +30 +32 очень душно 1007.7 972.5 2
Ю 1 10 км гроза, ливневой дождь 10/10 600 м
[Cb cap]
+20.9 +20.0 95 +27 +27 душно 1007.0 971.6
СЗ 1 10 км гроза, ливневой дождь 10/10 600 м
[Cb cap]
+20.2 +19.3 95 +25 +25 комфорт 1007.3 971.8
СЗ 3 {11} 15 км гроза без осадков {дождь} 10/10 600 м
[Cb cap]
+18.5 +17.7 95 +19 +19 1007.6 971.8
С 2 10 км гроза, ливневой дождь 10/10 600 м
[Cb cap]
+18.5 +17.7 95 +20 +20 1007.9 972.1
З 1 10 км в посл. час дождь {гроза} 8/8 600 м
[Cu Sc]
+17.7 +16.9 95 +19 +19 1008.2 972.3
штиль 0 10 км {гроза, дождь} 8/8 600 м
[Cu Sc]
+16.9 +16.1 95 +17 +17 1008.7 972.7 +26.2 50
штиль 0 10 км 5/5 1000 м
[Sc]
+16.1 +15.6 97 +16 +16 1009.3 973.1
штиль 0 10 км 3/3 1000 м
[Sc]
+15.4 +14.9 97 +15 +15 1009.8 973.5
штиль 0 2000 м дымка 10/10 600 м
[St]
+14.6 +14.3 98 +14 +14 1010.5 974.1
штиль 0 600 м туман, небо не видно ?/? +15.0 +14.7 98 +15 +15 1010.7 974.3
СЗ 1 600 м туман, небо не видно ?/? +15.5 +15.1 97 +16 +16 1010.8 974.5
З 1 600 м туман, небо не видно ?/? +15.4 +15.0 97 +16 +16 1010.8 974.5
Ю 1 2000 м в посл. час туман 10/10 600 м
[St]
+14.6 +14.3 98 +15 +15 1010.8 974.5
штиль 0 2000 м дымка {туман} 10/10 600 м
[St]
+14.4 +14.1 98 +14 +14 1011.2 974.7
Ю 1 2000 м дымка 10/10 600 м
[St]
+14.1 +13.7 97 +14 +14 1011.2 974.7
З 1 2000 м дымка 10/10 600 м
[St]
+14.5 +9.7 73 +15 +15 1011.7 975.2
Ю 1 2000 м дымка 10/10 600 м
[St]
+14.6 +14.3 98 +15 +15 1012.2 975.7
Ю 1 2000 м дымка 10/10 600 м
[St]
+15.5 +14.4 93 +16 +16 1012.4 976.0 +14.1 49.7
штиль 0 4000 м дымка 9/9 600 м
[St]
+16.7 +15.2 91 +17 +18 1012.3 976.1
штиль 0 10 км 9/9 1000 м
[Cu Sc]
+17.9 +16.0 89 +18 +20 1012.6 976.6
З 1 10 км 9/9 1000 м
[Cu Sc]
+19.6 +16.8 84 +23 +25 комфорт 1011.8 976.0
ЮВ 1 15 км 9/8 1000 м
[Cu Sc Ci sp]
+21.1 +17.2 78 +25 +29 комфорт 1011.4 975.8
ЮВ 1 15 км 8/8 1000 м
[Cu Sc Ci sp]
+22.9 +14.7 60 +27 +31 душно 1010.4 975.0
ЮВ 2 20 км 8/8 1000 м
[Cu Sc]
+23.2 +15.5 62 +27 +31 душно 1010.5 975.1
В 3 20 км гроза без осадков 9/9 1000 м
[Cb calv]
+22.1 +16.4 70 +26 +27 душно 1010.4 974.9
В 1 10 км гроза, ливневой дождь 10/10 1000 м
[Cb cap]
+19.7 +17.1 85 +23 +23 комфорт 1010.8 975.0
СЗ 2 10 км слаб. ливневой дождь, в посл. час гроза 10/10 1000 м
[Sc]
+15.1 +13.9 93 +15 +15 1013.5 977.0
ЮЗ 1 15 км слаб. дождь {гроза} 9/9 1000 м
[Sc]
+14.1 +12.9 92 +14 +15 1013.1 976.5
штиль 0 15 км в посл. час дождь 9/9 1000 м
[Sc]
+14.2 +13.0 92 +14 +14 1012.8 976.2
СВ 1 15 км {гроза, дождь} 8/8 1000 м
[Sc]
+14.6 +13.8 95 +15 +15 1013.0 976.5 +23.2 10
штиль 0 15 км 8/8 1000 м
[Sc]
+14.0 +13.1 94 +14 +14 1013.6 977.0
штиль 0 15 км 8/8 1000 м
[Sc]
+13.4 +12.5 94 +13 +13 1013.7 977.0
СЗ 1 15 км 9/9 1000 м
[Sc]
+13.2 +12.5 96 +13 +13 1013.8 977.1
штиль 0 15 км 8/8 1000 м
[Sc]
+12.6 +11.8 95 +12 +12 1014.3 977.5
штиль 0 10 км 10/10 1000 м
[Sc]
+12.5 +11.7 95 +12 +12 1014.2 977.4
СЗ 1 8000 м слаб. дождь 10/10 1000 м
[Sc]
+12.5 +12.0 97 +12 +12 1014.2 977.4 0.3
штиль 0 10 км в посл. час дождь 10/10 1000 м
[Sc]
+12.8 +12.3 97 +12 +12 1015.2 978.4
В 1 8000 м слаб. дождь 10/10 1000 м
[Sc]
+12.8 +12.3 97 +13 +13 1015.0 978.2
ЮВ 1 10 км в посл. час дождь 10/10 1000 м
[Sc]
+12.4 +11.8 96 +12 +12 1015.2 978.3
СЗ 1 10 км 10/10 1000 м
[Sc]
+12.3 +11.6 95 +12 +12 1015.5 978.6
штиль 0 6000 м дымка 10/10 600 м
[St]
+13.0 +12.5 97 +12 +12 1015.9 979.1
Ю 1 6000 м дымка {дождь} 8/8 600 м
[St]
+14.2 +13.7 97 +14 +16 1016.0 979.3 +12.3 2 12.1
штиль 0 10 км 9/5 600 м
[Cu Sc Ci sp]
+15.1 +13.4 90 +15 +20 1015.9 979.3
ЮЗ 1 20 км 10/10 600 м
[Cu Sc]
+16.2 +13.6 85 +17 +17 1015.8 979.4
З 1 20 км 10/10 600 м
[Cu Sc]
+17.2 +13.2 77 +18 +18 1016.0 979.7
СЗ 4 20 км 9/5 600 м
[Cu Sc Ci sp]
+18.5 +11.3 63 +19 +24 1016.0 979.8
СЗ 4 20 км 9/9 600 м
[Cu Sc]
+18.3 +11.6 65 +18 +20 1016.2 980.0
З 1 20 км 10/10 600 м
[Cu Sc]
+18.9 +12.0 64 +21 +21 комфорт 1016.1 980.0
СЗ 2 20 км 9/9 600 м
[Cu Sc]
+18.6 +12.0 65 +20 +21 1015.9 979.8
С 1 20 км 9/9 600 м
[Cu Sc]
+20.1 +12.4 61 +23 +24 комфорт 1015.4 979.5
СЗ 2 20 км 9/9 600 м
[Cu Sc]
+20.7 +12.7 60 +24 +24 комфорт 1015.3 979.4
З 1 20 км 5/4 600 м
[Cu Sc Ci sp]
+21.4 +12.3 56 +24 +26 комфорт 1014.9 979.1
штиль 0 20 км 3/3 1500 м
[Sc]
+21.4 +12.8 58 +24 +25 комфорт 1015.2 979.4
штиль 0 20 км 1/0
[Ac lent]
+16.6 +16.6 100 +16 +16 1016.0 979.8 +21.4
штиль 0 20 км 1/0
[Ci sp]
+14.8 +12.3 85 +14 +14 1016.8 980.2
штиль 0 20 км ясно +13.4 +12.1 92 +13 +13 1017.8 981.0
штиль 0 20 км ясно +12.1 +11.2 94 +11 +11 1018.3 981.3
штиль 0 20 км ясно +11.0 +10.2 95 +10 +10 1019.0 981.7
штиль 0 20 км 1/0
[Ci sp]
+10.6 +9.9 95 +10 +10 1018.8 981.5
штиль 0 20 км ясно +10.1 +9.5 96 +9 +9 1018.7 981.4
штиль 0 2000 м дымка 10/10 600 м
[St]
+10.0 +9.6 97 +9 +9 1019.0 981.6
штиль 0 2000 м дымка 10/10 600 м
[St]
+10.2 +9.8 97 +9 +9 1019.0 981.6
штиль 0 400 м туман, небо не видно ?/? +10.4 +10.0 97 +10 +10 1019.1 981.8
штиль 0 400 м туман, небо не видно ?/? +10.4 +10.2 99 +10 +10 1019.3 982.0
штиль 0 1000 м в посл. час туман 10/10 600 м
[St]
+10.8 +10.4 97 +10 +10 1019.6 982.3
Ю 1 4000 м дымка 10/10 600 м
[St]
+11.7 +11.2 97 +11 +11 1019.5 982.4 +10.0
ЮВ 1 10 км 5/5 600 м
[St]
+13.1 +12.1 94 +13 +19 1019.8 982.8
В 1 15 км 5/5 1000 м
[Cu med, cong]
+15.0 +12.0 82 +16 +23 1019.5 982.8
ЮВ 1 20 км 6/6 1000 м
[Cu Sc]
+18.7 +13.5 72 +21 +28 комфорт 1019.0 982.8
ЮВ 1 20 км гроза без осадков 6/6 1000 м
[Cb calv]
+21.4 +14.6 65 +24 +33 комфорт 1018.7 982.8
СВ 1 15 км в посл. час гроза {дождь} 9/9 1000 м
[Cu Sc]
+18.4 +14.9 80 +20 +22 1019.0 982.8
СЗ 3 20 км {гроза, дождь} 6/6 1000 м
[Cu Sc]
+20.0 +15.3 74 +23 +28 комфорт 1018.3 982.3 3
В 2 20 км 6/4 1000 м
[Cu med, cong Ci sp]
+21.6 +13.4 60 +24 +32 комфорт 1017.9 982.1
ЮВ 1 20 км 8/4 1000 м
[Cu med, cong Ci sp]
+21.5 +13.1 59 +24 +30 комфорт 1018.0 982.1
З 1 20 км 5/4 1000 м
[Cu med, cong Ci sp]
+22.3 +14.6 62 +26 +30 жарко 1017.6 981.9
Местоположение метеостанции Пожега Ужичка (Сербия): широта 43.83 долгота 20.03 высота над уровнем моря 312 м.
В архиве по умолчанию представлена погода в Пожега Ужичка за последнюю неделю. Архивные данные за месяц целиком и за предыдущие месяцы, начиная с января 2011 года, Вы можете получить, выбрав интересующий диапазон дат из раскрывающегося списка и нажав кнопку "Найти!".
*Определитесь, кто Вы:
Внимание! Время в таблицах - всемирное. Для получения местного времени необходимо прибавить поправку, которая равна 1 ч.
Некоторые строки с данными для отдельных станций могут быть выделены курсивом. Это означает, что фактические данные отсутствуют по различным причинам, а приведенные значения являются расчетными модельными данными для данного пункта наблюдений.
Смотрите также архив погоды в соседних городах и на ближайших метеорологических станциях:
Партнеры нашего сайта:      
Пояснения к столбцам:
  • Ветер - указаны скорость ветра в м/с - средняя за 10 мин, порывы в срок и между сроками (в фигурных скобках) и направление, откуда дует ветер: С - северный,
  • СВ - северо-восточный, В - восточный, ЮВ - юго-восточный, Ю - южный, ЮЗ - юго-западный, З - западный, СЗ - северо-западный.
  • Видимость - горизонтальная дальность видимости в метрах или километрах. При видимости от 1 до 10 км при отсутствии осадков обычно наблюдается дымка, при ухудшении видимости до 1 км и менее - туман. В сухую погоду видимость может ухудшаться дымом, пылью или мглою.
  • Явления - указаны атмосферные явления, наблюдавшиеся в срок или в последний час перед сроком; фигурными скобками обозначены явления, наблюдавшиеся между сроками (за 1-3 часа до срока); квадратными скобками обозначены град или гололедные отложения с указанием их диаметра в мм.
  • Облачность - указаны через наклонную черту общая и нижняя облачность в баллах и высота нижней границы облаков в метрах; квадратными скобками обозначены формы облаков: Ci - перистые, Cs - перисто-слоистые, Cc - перисто-кучевые, Ac - высококучевые, As - высокослоистые, Sc - слоисто-кучевые, Ns - слоисто-дождевые, Cu - кучевые, Cb - кучево-дождевые. Подробнее классификацию облаков см. в Атласе облаков (PDF).
  • T - Температура воздуха - температура, измеренная на высоте 2 м над землей.
  • Td - Температура точки росы - температура, при понижении до которой содержащийся в воздухе водяной пар достигнет насыщения.
  • f - Относительная влажность воздуха - влажноcть воздуха, измеренная на высоте 2 м над землей.
  • Te - Эффективная температура - температура, которую ощущает одетый по сезону человек в тени. Характеристика душности погоды. При расчете учитывается влияние влажности воздуха и скорости ветра на теплоощущения человека.
  • Tes - Эффективная температура на солнце - температура, которую ощущает человек, с поправкой на солнечный нагрев. Характеристика знойности погоды. Зависит от высоты солнца над горизонтом, облачности и скорости ветра. Ночью, в пасмурную погоду, а также при ветре 12 м/с и более поправка равна нулю.
  • P - Атмосферное давление - приведенное к уровню моря атмосферное давление.
  • Po - Атмосферное давление - измеренное на уровне метеостанции атмосферное давление.
  • Tmin - Минимальная температура - минимум температуры воздуха на высоте 2 м над землей.
  • Tmax - Максимальная температура - максимум температуры воздуха на высоте 2 м над землей.
  • R - Количество осадков - Количество выпавших осадков за период времени, мм. При наведении курсора мыши на число - период времени, за который выпало указанное количество осадков.
  • R24 - Количество осадков - Количество выпавших осадков за 24 часа, мм.
  • S - Снежный покров - Высота снежного покрова, см. При наведении курсора мыши на число - состояние снежного покрова и степень покрытия местности в баллах.